QPF
0.00 0.00 0.00 0.00 0.00 0.00 0.00 0.00 0.00 0.00 0.00 0.00 0.01 0.01 0.02 0.02 0.02 0.03 0.03 0.03 0.03 0.02 0.03 0.03 0.03 0.03 0.04 0.05 0.04 0.06 0.06 0.06 0.07 0.06 0.05 0.05 0.04 0.03 0.02 0.03 0.05 0.04 0.04 0.04
0.00 0.00 0.00 0.00 0.00 0.00 0.00 0.00 0.01 0.01 0.00 0.00 0.01 0.01 0.02 0.02 0.02 0.02 0.03 0.03 0.03 0.03 0.03 0.04 0.05 0.05 0.05 0.06 0.05 0.06 0.06 0.07 0.08 0.08 0.08 0.08 0.07 0.05 0.05 0.07 0.07 0.05 0.05 0.05
0.00 0.00 0.00 0.00 0.00 0.00 0.01 0.03 0.02 0.02 0.01 0.01 0.01 0.01 0.01 0.01 0.02 0.03 0.03 0.04 0.04 0.04 0.04 0.04 0.04 0.06 0.06 0.05 0.06 0.07 0.09 0.14 0.13 0.09 0.06 0.06 0.07 0.07 0.07 0.07 0.07 0.05 0.06 0.06
0.00 0.00 0.00 0.00 0.00 0.00 0.01 0.01 0.01 0.01 0.01 0.01 0.01 0.01 0.01 0.02 0.03 0.03 0.03 0.04 0.04 0.05 0.05 0.04 0.03 0.04 0.04 0.04 0.04 0.04 0.06 0.09 0.09 0.06 0.06 0.06 0.06 0.05 0.05 0.06 0.06 0.06 0.06 0.05
0.00 0.00 0.00 0.00 0.01 0.01 0.01 0.01 0.00 0.00 0.01 0.01 0.01 0.01 0.02 0.02 0.02 0.03 0.03 0.03 0.04 0.05 0.05 0.04 0.03 0.02 0.03 0.03 0.03 0.04 0.04 0.04 0.04 0.04 0.05 0.04 0.05 0.05 0.05 0.04 0.04 0.05 0.05 0.04
0.00 0.00 0.00 0.00 0.00 0.01 0.01 0.01 0.01 0.01 0.01 0.01 0.01 0.01 0.01 0.02 0.03 0.03 0.04 0.05 0.05 0.04 0.04 0.03 0.03 0.02 0.02 0.02 0.03 0.03 0.03 0.04 0.04 0.05 0.05 0.05 0.06 0.07 0.05 0.05 0.05 0.05 0.04 0.04
0.00 0.00 0.00 0.00 0.00 0.01 0.01 0.00 0.00 0.01 0.01 0.01 0.01 0.01 0.01 0.01 0.03 0.04 0.04 0.04 0.04 0.03 0.02 0.02 0.02 0.01 0.01 0.02 0.02 0.03 0.02 0.03 0.04 0.04 0.05 0.05 0.08 0.09 0.07 0.07 0.07 0.06 0.05 0.04
0.00 0.00 0.00 0.00 0.00 0.01 0.01 0.01 0.01 0.01 0.01 0.01 0.01 0.01 0.01 0.02 0.02 0.03 0.04 0.04 0.05 0.03 0.02 0.02 0.01 0.01 0.01 0.02 0.02 0.03 0.03 0.03 0.03 0.04 0.05 0.07 0.08 0.07 0.06 0.06 0.06 0.05 0.05 0.05
0.00 0.00 0.00 0.00 0.00 0.01 0.01 0.01 0.01 0.01 0.01 0.01 0.01 0.01 0.02 0.03 0.04 0.04 0.04 0.05 0.06 0.04 0.03 0.02 0.02 0.02 0.02 0.03 0.04 0.04 0.03 0.02 0.03 0.05 0.07 0.06 0.06 0.07 0.08 0.07 0.05 0.04 0.04 0.05
0.01 0.01 0.01 0.01 0.01 0.00 0.01 0.02 0.02 0.02 0.01 0.01 0.02 0.02 0.03 0.04 0.04 0.05 0.05 0.05 0.05 0.04 0.04 0.03 0.02 0.02 0.03 0.03 0.02 0.02 0.03 0.03 0.04 0.05 0.07 0.06 0.05 0.05 0.07 0.11 0.07 0.05 0.04 0.05
0.01 0.01 0.01 0.01 0.01 0.01 0.01 0.03 0.03 0.02 0.02 0.02 0.02 0.03 0.04 0.04 0.05 0.06 0.06 0.05 0.05 0.05 0.04 0.02 0.02 0.01 0.01 0.01 0.02 0.02 0.02 0.02 0.02 0.03 0.04 0.04 0.04 0.04 0.06 0.09 0.10 0.09 0.06 0.06
0.01 0.01 0.01 0.01 0.01 0.01 0.01 0.01 0.01 0.02 0.03 0.04 0.05 0.04 0.04 0.04 0.05 0.07 0.07 0.07 0.06 0.05 0.04 0.03 0.02 0.01 0.01 0.01 0.01 0.02 0.01 0.02 0.02 0.02 0.02 0.03 0.03 0.04 0.06 0.07 0.09 0.10 0.08 0.08
0.01 0.02 0.02 0.02 0.02 0.02 0.02 0.02 0.03 0.02 0.02 0.03 0.04 0.05 0.05 0.05 0.05 0.07 0.08 0.08 0.07 0.05 0.03 0.02 0.02 0.02 0.02 0.02 0.02 0.02 0.02 0.03 0.05 0.04 0.03 0.03 0.04 0.04 0.04 0.05 0.06 0.06 0.07 0.07
0.01 0.02 0.02 0.01 0.02 0.02 0.03 0.03 0.03 0.02 0.02 0.03 0.04 0.04 0.05 0.06 0.05 0.06 0.07 0.07 0.05 0.05 0.04 0.02 0.02 0.02 0.02 0.02 0.03 0.03 0.04 0.05 0.05 0.04 0.03 0.03 0.03 0.04 0.05 0.04 0.04 0.03 0.04 0.05
0.01 0.02 0.02 0.02 0.02 0.03 0.03 0.03 0.03 0.02 0.02 0.02 0.02 0.04 0.05 0.06 0.06 0.06 0.06 0.05 0.04 0.04 0.03 0.03 0.03 0.02 0.02 0.02 0.03 0.04 0.04 0.05 0.05 0.04 0.04 0.04 0.04 0.04 0.05 0.05 0.04 0.03 0.02 0.03
0.02 0.02 0.02 0.03 0.02 0.03 0.03 0.03 0.03 0.02 0.02 0.02 0.02 0.03 0.04 0.06 0.06 0.06 0.04 0.03 0.03 0.03 0.02 0.02 0.02 0.02 0.02 0.02 0.02 0.04 0.05 0.05 0.04 0.03 0.02 0.02 0.03 0.05 0.06 0.05 0.04 0.04 0.03 0.03
0.02 0.02 0.02 0.03 0.02 0.02 0.02 0.02 0.02 0.02 0.01 0.01 0.02 0.02 0.04 0.04 0.05 0.05 0.04 0.04 0.04 0.04 0.03 0.03 0.03 0.03 0.02 0.02 0.02 0.03 0.04 0.04 0.04 0.03 0.02 0.02 0.03 0.04 0.05 0.05 0.05 0.04 0.04 0.04
0.03 0.02 0.02 0.02 0.02 0.02 0.02 0.02 0.02 0.02 0.02 0.01 0.01 0.02 0.04 0.03 0.04 0.05 0.04 0.04 0.04 0.05 0.05 0.05 0.05 0.03 0.02 0.02 0.02 0.02 0.02 0.03 0.03 0.03 0.02 0.02 0.02 0.02 0.02 0.03 0.05 0.06 0.06 0.05
0.02 0.02 0.01 0.02 0.03 0.03 0.03 0.02 0.02 0.02 0.02 0.03 0.02 0.02 0.03 0.03 0.03 0.03 0.03 0.03 0.03 0.04 0.05 0.07 0.06 0.04 0.03 0.02 0.02 0.02 0.02 0.03 0.03 0.04 0.04 0.04 0.04 0.03 0.03 0.03 0.04 0.06 0.07 0.07
0.03 0.02 0.01 0.02 0.02 0.03 0.03 0.02 0.02 0.02 0.04 0.06 0.05 0.03 0.03 0.03 0.02 0.02 0.02 0.02 0.02 0.02 0.02 0.03 0.03 0.03 0.03 0.03 0.03 0.02 0.02 0.02 0.03 0.04 0.05 0.05 0.05 0.05 0.04 0.04 0.04 0.03 0.04 0.04
0.04 0.04 0.03 0.03 0.02 0.02 0.03 0.04 0.04 0.04 0.06 0.06 0.05 0.06 0.04 0.03 0.03 0.02 0.02 0.02 0.01 0.01 0.02 0.02 0.02 0.02 0.03 0.03 0.03 0.02 0.02 0.02 0.02 0.03 0.04 0.04 0.05 0.06 0.07 0.05 0.04 0.03 0.04 0.03
0.05 0.06 0.04 0.04 0.03 0.03 0.03 0.04 0.05 0.06 0.07 0.07 0.07 0.07 0.05 0.03 0.02 0.02 0.03 0.04 0.02 0.02 0.02 0.01 0.01 0.01 0.02 0.03 0.03 0.03 0.02 0.02 0.02 0.02 0.03 0.04 0.06 0.07 0.06 0.06 0.05 0.06 0.08 0.07
0.05 0.05 0.06 0.07 0.05 0.03 0.03 0.04 0.06 0.07 0.06 0.05 0.06 0.06 0.04 0.03 0.02 0.02 0.03 0.05 0.04 0.02 0.02 0.01 0.01 0.01 0.01 0.02 0.03 0.03 0.03 0.03 0.03 0.03 0.03 0.04 0.07 0.08 0.07 0.06 0.06 0.07 0.08 0.09
0.05 0.04 0.05 0.06 0.04 0.02 0.03 0.06 0.06 0.04 0.03 0.03 0.04 0.05 0.04 0.02 0.02 0.01 0.02 0.05 0.06 0.04 0.02 0.02 0.02 0.01 0.01 0.02 0.03 0.06 0.04 0.03 0.04 0.04 0.05 0.06 0.07 0.08 0.08 0.08 0.08 0.07 0.06 0.05
0.05 0.04 0.04 0.04 0.03 0.03 0.04 0.06 0.04 0.02 0.02 0.02 0.02 0.02 0.02 0.02 0.01 0.01 0.02 0.04 0.06 0.05 0.03 0.03 0.02 0.02 0.01 0.01 0.01 0.03 0.04 0.04 0.04 0.05 0.07 0.10 0.11 0.10 0.08 0.08 0.09 0.08 0.06 0.04
0.04 0.04 0.05 0.04 0.04 0.04 0.04 0.05 0.04 0.03 0.03 0.03 0.02 0.02 0.02 0.02 0.02 0.02 0.03 0.04 0.06 0.06 0.04 0.03 0.02 0.02 0.02 0.01 0.01 0.02 0.04 0.06 0.06 0.06 0.05 0.07 0.09 0.09 0.07 0.06 0.05 0.05 0.04 0.03
0.05 0.05 0.05 0.05 0.05 0.04 0.04 0.05 0.06 0.05 0.06 0.06 0.05 0.03 0.03 0.03 0.03 0.03 0.03 0.04 0.04 0.05 0.05 0.04 0.02 0.02 0.03 0.04 0.04 0.05 0.05 0.06 0.07 0.06 0.05 0.05 0.05 0.05 0.04 0.03 0.03 0.02 0.01 0.01
MSLP
1013.54 1013.92 1014.35 1014.79 1015.19 1015.47 1015.58 1015.48 1015.14 1014.60 1013.92 1013.17 1012.47 1011.90 1011.54 1011.41 1011.53 1011.83 1012.26 1012.73 1013.16 1013.49 1013.69 1013.78 1013.76 1013.70 1013.66 1013.66 1013.74 1013.90 1014.11 1014.34 1014.53 1014.66 1014.69 1014.61 1014.45 1014.24 1014.02 1013.82 1013.70 1013.65 1013.70 1013.82
1013.84 1014.18 1014.50 1014.78 1014.97 1015.03 1014.93 1014.65 1014.21 1013.65 1013.01 1012.39 1011.86 1011.48 1011.32 1011.36 1011.61 1012.00 1012.48 1012.97 1013.39 1013.72 1013.94 1014.04 1014.08 1014.09 1014.11 1014.20 1014.35 1014.58 1014.85 1015.12 1015.36 1015.53 1015.60 1015.57 1015.46 1015.29 1015.10 1014.93 1014.80 1014.75 1014.78 1014.88
1014.29 1014.58 1014.78 1014.90 1014.89 1014.74 1014.45 1014.01 1013.46 1012.85 1012.23 1011.67 1011.25 1011.01 1010.96 1011.12 1011.45 1011.90 1012.41 1012.92 1013.36 1013.71 1013.97 1014.14 1014.25 1014.36 1014.48 1014.66 1014.91 1015.21 1015.54 1015.87 1016.16 1016.38 1016.50 1016.53 1016.48 1016.37 1016.23 1016.10 1016.00 1015.96 1015.98 1016.05
1014.88 1015.08 1015.17 1015.13 1014.94 1014.61 1014.14 1013.56 1012.90 1012.23 1011.59 1011.06 1010.69 1010.51 1010.53 1010.74 1011.11 1011.59 1012.11 1012.64 1013.11 1013.51 1013.83 1014.09 1014.32 1014.53 1014.77 1015.06 1015.39 1015.77 1016.16 1016.55 1016.88 1017.15 1017.34 1017.43 1017.45 1017.41 1017.34 1017.27 1017.21 1017.19 1017.20 1017.26
1015.49 1015.58 1015.55 1015.37 1015.04 1014.56 1013.96 1013.26 1012.52 1011.79 1011.13 1010.59 1010.23 1010.07 1010.10 1010.32 1010.70 1011.17 1011.70 1012.24 1012.75 1013.21 1013.61 1013.97 1014.31 1014.65 1015.00 1015.39 1015.81 1016.26 1016.71 1017.13 1017.52 1017.83 1018.08 1018.24 1018.34 1018.38 1018.39 1018.38 1018.37 1018.37 1018.39 1018.42
1015.97 1015.96 1015.81 1015.53 1015.09 1014.51 1013.82 1013.06 1012.27 1011.51 1010.83 1010.29 1009.93 1009.76 1009.78 1009.98 1010.33 1010.79 1011.31 1011.86 1012.40 1012.91 1013.40 1013.86 1014.30 1014.75 1015.21 1015.69 1016.18 1016.68 1017.17 1017.63 1018.05 1018.41 1018.71 1018.94 1019.12 1019.24 1019.33 1019.39 1019.43 1019.46 1019.49 1019.52
1016.21 1016.09 1015.86 1015.50 1015.00 1014.39 1013.68 1012.91 1012.12 1011.38 1010.72 1010.19 1009.83 1009.65 1009.65 1009.82 1010.14 1010.56 1011.07 1011.61 1012.17 1012.73 1013.28 1013.81 1014.35 1014.88 1015.41 1015.96 1016.50 1017.04 1017.56 1018.05 1018.49 1018.90 1019.25 1019.54 1019.79 1019.99 1020.16 1020.29 1020.38 1020.45 1020.49 1020.52
1016.13 1015.93 1015.64 1015.24 1014.75 1014.15 1013.49 1012.77 1012.06 1011.38 1010.77 1010.29 1009.95 1009.78 1009.77 1009.92 1010.19 1010.58 1011.05 1011.58 1012.14 1012.72 1013.30 1013.88 1014.47 1015.05 1015.63 1016.21 1016.79 1017.34 1017.88 1018.38 1018.86 1019.29 1019.69 1020.05 1020.36 1020.64 1020.88 1021.07 1021.22 1021.33 1021.40 1021.44
1015.76 1015.49 1015.17 1014.79 1014.34 1013.82 1013.25 1012.65 1012.05 1011.48 1010.98 1010.58 1010.30 1010.15 1010.15 1010.27 1010.52 1010.87 1011.30 1011.80 1012.33 1012.90 1013.48 1014.08 1014.67 1015.28 1015.87 1016.46 1017.04 1017.60 1018.14 1018.65 1019.15 1019.61 1020.05 1020.46 1020.84 1021.19 1021.49 1021.75 1021.96 1022.11 1022.22 1022.27
1015.17 1014.87 1014.56 1014.22 1013.84 1013.43 1013.00 1012.54 1012.09 1011.67 1011.30 1011.00 1010.80 1010.70 1010.72 1010.84 1011.06 1011.38 1011.76 1012.21 1012.71 1013.24 1013.79 1014.37 1014.95 1015.53 1016.11 1016.69 1017.26 1017.81 1018.34 1018.86 1019.37 1019.86 1020.34 1020.80 1021.24 1021.65 1022.02 1022.34 1022.60 1022.81 1022.95 1023.05
1014.52 1014.21 1013.92 1013.64 1013.36 1013.07 1012.77 1012.47 1012.18 1011.90 1011.67 1011.48 1011.37 1011.33 1011.38 1011.51 1011.71 1011.99 1012.34 1012.74 1013.18 1013.66 1014.17 1014.70 1015.24 1015.79 1016.34 1016.89 1017.43 1017.97 1018.50 1019.02 1019.54 1020.06 1020.57 1021.08 1021.57 1022.03 1022.46 1022.83 1023.15 1023.41 1023.61 1023.76
1013.96 1013.66 1013.40 1013.17 1012.97 1012.79 1012.61 1012.44 1012.28 1012.13 1012.01 1011.93 1011.89 1011.91 1011.99 1012.13 1012.34 1012.59 1012.90 1013.26 1013.65 1014.08 1014.54 1015.02 1015.51 1016.02 1016.53 1017.04 1017.56 1018.08 1018.60 1019.13 1019.67 1020.21 1020.76 1021.30 1021.83 1022.34 1022.82 1023.25 1023.62 1023.94 1024.19 1024.39
1013.60 1013.30 1013.07 1012.88 1012.74 1012.62 1012.52 1012.44 1012.36 1012.30 1012.26 1012.25 1012.28 1012.34 1012.45 1012.60 1012.81 1013.05 1013.34 1013.67 1014.03 1014.41 1014.83 1015.26 1015.71 1016.18 1016.66 1017.14 1017.64 1018.15 1018.68 1019.21 1019.76 1020.33 1020.90 1021.48 1022.05 1022.60 1023.12 1023.59 1024.01 1024.38 1024.68 1024.93
1013.47 1013.18 1012.96 1012.79 1012.66 1012.57 1012.50 1012.45 1012.41 1012.38 1012.37 1012.40 1012.45 1012.54 1012.67 1012.84 1013.05 1013.30 1013.58 1013.90 1014.24 1014.61 1015.00 1015.41 1015.83 1016.27 1016.73 1017.20 1017.69 1018.20 1018.72 1019.27 1019.84 1020.42 1021.02 1021.63 1022.23 1022.81 1023.36 1023.87 1024.33 1024.73 1025.08 1025.38
1013.52 1013.24 1013.01 1012.84 1012.71 1012.60 1012.51 1012.43 1012.38 1012.34 1012.33 1012.34 1012.40 1012.50 1012.64 1012.83 1013.06 1013.32 1013.62 1013.95 1014.30 1014.66 1015.05 1015.45 1015.87 1016.30 1016.75 1017.22 1017.71 1018.22 1018.76 1019.32 1019.90 1020.51 1021.13 1021.75 1022.37 1022.97 1023.55 1024.08 1024.57 1025.01 1025.39 1025.72
1013.66 1013.38 1013.15 1012.96 1012.79 1012.64 1012.50 1012.37 1012.26 1012.17 1012.12 1012.12 1012.16 1012.26 1012.41 1012.62 1012.87 1013.16 1013.49 1013.84 1014.21 1014.60 1015.00 1015.42 1015.84 1016.28 1016.74 1017.21 1017.71 1018.23 1018.78 1019.36 1019.96 1020.58 1021.22 1021.86 1022.49 1023.11 1023.69 1024.24 1024.75 1025.20 1025.61 1025.96
1013.76 1013.50 1013.26 1013.05 1012.84 1012.63 1012.42 1012.23 1012.05 1011.91 1011.81 1011.76 1011.79 1011.88 1012.04 1012.27 1012.55 1012.88 1013.25 1013.64 1014.05 1014.47 1014.90 1015.34 1015.78 1016.24 1016.71 1017.20 1017.71 1018.25 1018.81 1019.40 1020.01 1020.64 1021.29 1021.94 1022.58 1023.20 1023.79 1024.35 1024.86 1025.33 1025.74 1026.11
1013.72 1013.48 1013.25 1013.02 1012.77 1012.51 1012.25 1011.99 1011.76 1011.56 1011.42 1011.34 1011.36 1011.45 1011.63 1011.88 1012.20 1012.57 1012.98 1013.42 1013.87 1014.33 1014.79 1015.25 1015.72 1016.19 1016.68 1017.18 1017.70 1018.25 1018.83 1019.43 1020.05 1020.69 1021.34 1021.99 1022.63 1023.25 1023.84 1024.40 1024.91 1025.38 1025.79 1026.17
1013.47 1013.26 1013.05 1012.81 1012.55 1012.26 1011.96 1011.66 1011.39 1011.16 1010.99 1010.91 1010.92 1011.03 1011.23 1011.52 1011.88 1012.30 1012.75 1013.23 1013.71 1014.20 1014.69 1015.18 1015.66 1016.15 1016.65 1017.17 1017.70 1018.26 1018.84 1019.45 1020.07 1020.71 1021.36 1022.00 1022.64 1023.25 1023.84 1024.39 1024.89 1025.35 1025.77 1026.14
1013.01 1012.84 1012.65 1012.42 1012.16 1011.86 1011.54 1011.23 1010.95 1010.71 1010.55 1010.48 1010.51 1010.65 1010.89 1011.22 1011.62 1012.08 1012.57 1013.08 1013.60 1014.11 1014.62 1015.13 1015.63 1016.13 1016.63 1017.16 1017.70 1018.26 1018.85 1019.45 1020.07 1020.71 1021.35 1021.98 1022.60 1023.20 1023.77 1024.31 1024.80 1025.25 1025.66 1026.02
1012.38 1012.25 1012.08 1011.87 1011.62 1011.33 1011.02 1010.71 1010.44 1010.22 1010.09 1010.05 1010.13 1010.31 1010.60 1010.97 1011.41 1011.91 1012.43 1012.97 1013.52 1014.05 1014.57 1015.09 1015.60 1016.10 1016.62 1017.14 1017.69 1018.25 1018.84 1019.44 1020.05 1020.67 1021.30 1021.91 1022.51 1023.09 1023.64 1024.15 1024.63 1025.07 1025.46 1025.82
1011.66 1011.55 1011.40 1011.21 1010.96 1010.69 1010.40 1010.12 1009.87 1009.70 1009.61 1009.62 1009.75 1009.98 1010.32 1010.74 1011.23 1011.76 1012.31 1012.88 1013.44 1013.99 1014.52 1015.05 1015.56 1016.07 1016.59 1017.12 1017.67 1018.23 1018.81 1019.40 1020.00 1020.60 1021.20 1021.79 1022.36 1022.91 1023.43 1023.92 1024.37 1024.79 1025.17 1025.53
1010.90 1010.79 1010.65 1010.46 1010.23 1009.97 1009.70 1009.45 1009.26 1009.13 1009.10 1009.17 1009.36 1009.65 1010.04 1010.51 1011.03 1011.60 1012.18 1012.77 1013.35 1013.91 1014.45 1014.98 1015.50 1016.02 1016.55 1017.08 1017.62 1018.18 1018.75 1019.33 1019.91 1020.49 1021.06 1021.61 1022.15 1022.66 1023.14 1023.59 1024.02 1024.42 1024.79 1025.13
1010.13 1010.02 1009.87 1009.67 1009.45 1009.20 1008.96 1008.75 1008.60 1008.53 1008.56 1008.70 1008.95 1009.30 1009.74 1010.26 1010.82 1011.42 1012.03 1012.63 1013.22 1013.80 1014.35 1014.89 1015.42 1015.95 1016.48 1017.01 1017.56 1018.11 1018.67 1019.23 1019.78 1020.33 1020.86 1021.37 1021.86 1022.33 1022.77 1023.18 1023.58 1023.95 1024.30 1024.64
1009.37 1009.24 1009.07 1008.87 1008.64 1008.41 1008.20 1008.04 1007.94 1007.93 1008.03 1008.23 1008.54 1008.95 1009.45 1010.01 1010.61 1011.23 1011.86 1012.47 1013.08 1013.66 1014.22 1014.77 1015.30 1015.84 1016.37 1016.91 1017.45 1017.99 1018.54 1019.07 1019.60 1020.11 1020.60 1021.06 1021.50 1021.92 1022.32 1022.69 1023.05 1023.40 1023.74 1024.06
1008.61 1008.45 1008.26 1008.05 1007.84 1007.63 1007.46 1007.35 1007.31 1007.37 1007.53 1007.81 1008.18 1008.65 1009.19 1009.78 1010.41 1011.05 1011.69 1012.32 1012.92 1013.51 1014.08 1014.62 1015.16 1015.70 1016.23 1016.76 1017.29 1017.83 1018.35 1018.86 1019.35 1019.82 1020.27 1020.69 1021.08 1021.45 1021.80 1022.14 1022.47 1022.80 1023.12 1023.43
1007.81 1007.63 1007.44 1007.25 1007.05 1006.89 1006.77 1006.72 1006.76 1006.90 1007.13 1007.47 1007.91 1008.43 1009.01 1009.63 1010.28 1010.93 1011.57 1012.19 1012.79 1013.37 1013.93 1014.47 1015.00 1015.53 1016.05 1016.57 1017.09 1017.60 1018.10 1018.58 1019.04 1019.48 1019.88 1020.26 1020.61 1020.94 1021.26 1021.57 1021.87 1022.18 1022.49 1022.80
Thickness
5715 5726 5730 5733 5732 5728 5728 5721 5716 5725 5731 5748 5757 5762 5767 5772 5775 5776 5776 5777 5777 5777 5777 5777 5776 5776 5775 5773 5772 5771 5769 5766 5764 5762 5760 5757 5755 5754 5752 5750 5748 5746 5744 5742
5709 5719 5726 5725 5727 5728 5730 5727 5728 5731 5734 5753 5757 5760 5762 5765 5767 5768 5769 5771 5772 5772 5772 5772 5773 5773 5771 5769 5768 5767 5765 5763 5761 5758 5756 5754 5752 5750 5747 5746 5744 5742 5741 5739
5689 5707 5714 5704 5718 5722 5724 5728 5729 5727 5737 5746 5749 5753 5756 5758 5761 5762 5764 5766 5766 5766 5767 5768 5768 5768 5766 5765 5764 5761 5760 5758 5756 5753 5752 5750 5748 5745 5743 5741 5740 5738 5736 5735
5678 5693 5682 5702 5724 5727 5724 5725 5731 5735 5739 5743 5747 5750 5752 5755 5756 5758 5760 5760 5762 5762 5761 5761 5762 5762 5761 5760 5758 5756 5755 5753 5752 5750 5747 5744 5742 5740 5738 5737 5735 5734 5732 5731
5663 5670 5682 5703 5717 5720 5716 5717 5729 5731 5735 5738 5742 5743 5742 5749 5752 5754 5756 5757 5757 5758 5756 5755 5754 5754 5754 5753 5751 5750 5748 5747 5746 5745 5742 5739 5737 5735 5733 5732 5730 5729 5728 5726
5659 5664 5666 5693 5716 5724 5718 5707 5727 5729 5729 5732 5735 5727 5733 5743 5746 5748 5749 5750 5750 5750 5749 5747 5747 5748 5747 5746 5745 5743 5743 5742 5741 5739 5737 5734 5732 5730 5729 5727 5725 5724 5722 5720
5655 5660 5670 5696 5709 5715 5696 5704 5725 5727 5727 5727 5728 5730 5735 5737 5739 5740 5741 5742 5743 5743 5741 5740 5741 5741 5740 5739 5737 5738 5737 5736 5735 5733 5731 5729 5728 5726 5723 5721 5719 5717 5714 5712
5647 5652 5664 5695 5700 5697 5700 5713 5718 5721 5723 5722 5723 5726 5728 5730 5731 5733 5732 5733 5733 5733 5733 5733 5734 5734 5733 5731 5731 5731 5731 5729 5727 5726 5725 5724 5722 5719 5717 5714 5712 5709 5707 5705
5653 5659 5675 5685 5690 5697 5701 5705 5710 5713 5716 5716 5716 5716 5718 5720 5722 5723 5723 5723 5724 5724 5724 5724 5725 5726 5724 5723 5724 5724 5722 5720 5719 5719 5717 5716 5714 5712 5710 5707 5705 5702 5700 5698
5650 5661 5671 5679 5686 5691 5696 5700 5705 5707 5709 5710 5708 5709 5709 5709 5712 5713 5714 5714 5715 5715 5715 5714 5715 5716 5716 5716 5716 5716 5713 5711 5710 5709 5708 5706 5705 5704 5702 5700 5697 5695 5693 5691
5643 5655 5664 5672 5677 5682 5687 5693 5696 5699 5700 5701 5702 5701 5701 5701 5702 5704 5705 5705 5706 5705 5704 5704 5704 5706 5707 5708 5708 5706 5704 5702 5701 5700 5698 5696 5694 5692 5691 5690 5690 5688 5687 5685
5639 5650 5653 5660 5670 5675 5678 5682 5686 5689 5690 5692 5694 5693 5692 5692 5693 5694 5696 5697 5696 5696 5696 5695 5695 5696 5697 5698 5698 5697 5695 5693 5692 5691 5689 5688 5686 5682 5679 5679 5679 5678 5678 5676
5641 5648 5650 5656 5662 5667 5670 5673 5677 5679 5681 5682 5684 5685 5685 5684 5684 5685 5686 5688 5688 5688 5688 5687 5686 5687 5688 5688 5688 5688 5686 5684 5683 5682 5681 5680 5678 5676 5672 5668 5667 5666 5666 5665
5637 5640 5642 5648 5653 5659 5662 5665 5667 5670 5672 5674 5675 5676 5677 5675 5675 5676 5677 5679 5680 5680 5680 5680 5679 5678 5679 5679 5679 5678 5677 5676 5675 5674 5673 5672 5670 5668 5666 5663 5660 5656 5654 5653
5631 5634 5637 5642 5646 5649 5653 5655 5656 5658 5661 5664 5666 5667 5668 5667 5667 5668 5669 5671 5671 5672 5672 5672 5671 5671 5671 5671 5671 5670 5670 5668 5667 5666 5665 5663 5661 5659 5657 5654 5651 5648 5644 5641
5625 5628 5631 5633 5636 5640 5643 5646 5647 5649 5652 5655 5656 5658 5660 5660 5660 5660 5661 5663 5663 5664 5664 5664 5663 5664 5664 5664 5663 5662 5661 5661 5660 5658 5656 5654 5652 5650 5647 5645 5642 5640 5637 5634
5616 5619 5623 5626 5629 5632 5636 5639 5641 5644 5645 5646 5649 5650 5651 5652 5652 5652 5653 5654 5656 5657 5657 5657 5657 5657 5657 5657 5656 5655 5654 5653 5652 5650 5648 5646 5644 5642 5640 5637 5634 5631 5628 5625
5614 5617 5620 5622 5624 5626 5629 5632 5635 5637 5638 5640 5642 5642 5642 5643 5644 5645 5645 5646 5647 5648 5649 5651 5650 5650 5650 5650 5650 5649 5648 5646 5644 5642 5640 5638 5636 5634 5632 5629 5626 5623 5619 5616
5610 5612 5614 5617 5619 5621 5624 5626 5628 5631 5632 5633 5633 5633 5634 5635 5636 5637 5637 5638 5639 5640 5642 5643 5643 5643 5643 5643 5643 5641 5640 5639 5637 5635 5632 5629 5628 5626 5624 5621 5618 5615 5612 5608
5605 5607 5609 5611 5614 5616 5618 5621 5623 5624 5625 5625 5625 5625 5626 5627 5629 5629 5629 5630 5632 5634 5635 5636 5637 5637 5637 5637 5635 5634 5633 5631 5630 5628 5625 5623 5621 5618 5616 5613 5610 5607 5604 5600
5598 5601 5603 5605 5608 5611 5613 5615 5616 5618 5619 5620 5620 5620 5620 5621 5621 5621 5621 5622 5625 5627 5628 5628 5629 5630 5630 5630 5628 5627 5626 5625 5624 5622 5620 5617 5615 5612 5609 5606 5603 5599 5596 5592
5593 5595 5598 5600 5602 5604 5607 5609 5610 5611 5612 5613 5614 5614 5613 5613 5613 5613 5614 5616 5617 5618 5620 5621 5622 5623 5623 5622 5622 5621 5621 5620 5618 5616 5614 5612 5609 5606 5603 5600 5596 5592 5588 5584
5587 5590 5592 5594 5596 5598 5600 5602 5603 5604 5605 5606 5607 5608 5608 5608 5608 5608 5608 5609 5610 5610 5612 5613 5614 5615 5615 5615 5615 5616 5615 5614 5612 5611 5609 5607 5604 5601 5597 5593 5590 5585 5580 5576
5582 5584 5586 5588 5590 5592 5593 5595 5596 5598 5599 5600 5601 5602 5602 5601 5601 5602 5603 5603 5603 5604 5604 5605 5606 5608 5608 5609 5610 5609 5608 5607 5606 5605 5603 5601 5597 5594 5591 5587 5583 5578 5573 5568
5576 5578 5580 5582 5583 5585 5587 5588 5590 5591 5593 5594 5595 5595 5596 5596 5596 5596 5597 5597 5597 5598 5598 5599 5599 5601 5602 5603 5603 5602 5601 5601 5600 5598 5596 5593 5590 5586 5582 5579 5575 5571 5565 5561
5570 5572 5573 5575 5577 5578 5580 5582 5584 5585 5587 5587 5588 5589 5590 5590 5591 5591 5592 5592 5593 5593 5593 5593 5594 5595 5596 5596 5596 5595 5594 5593 5591 5590 5587 5585 5582 5578 5574 5570 5567 5563 5558 5553
5565 5566 5567 5569 5570 5572 5574 5577 5578 5579 5581 5583 5583 5584 5585 5586 5586 5587 5587 5587 5587 5587 5587 5587 5588 5589 5589 5589 5588 5587 5586 5585 5583 5581 5578 5576 5573 5570 5566 5563 5559 5555 5551 5546